GW5131 Weather Reports


Display with metric or nautical units.
time (UTC)temp
F
wind
direction
speed
MPH
gust
MPH
rain 1hr
in
rain 24hr
in
rain mn
in
humidity
%
barometer
mb
20260905040738 68 16 0.0 0.0 0.00 0.00 0.00 99 981.5
20260905040237 68 16 0.0 0.0 0.00 0.21 0.21 99 981.3
20260905035732 68 16 0.0 0.0 0.00 0.21 0.21 99 981.4
20260905035228 68 16 0.0 0.0 0.00 0.21 0.21 99 981.6
20260905034725 68 16 0.0 0.0 0.00 0.21 0.21 99 981.5
20260905034224 68 16 0.0 0.0 0.00 0.21 0.21 99 981.5
20260905033723 68 16 0.0 0.0 0.00 0.21 0.21 99 981.6
20260905033219 68 16 0.0 0.0 0.00 0.21 0.21 99 981.3
20260905032718 68 16 0.0 0.0 0.00 0.21 0.21 99 981.2
20260905032213 68 16 0.0 0.0 0.00 0.21 0.21 99 980.9
20260905031709 68 16 0.0 0.0 0.00 0.21 0.21 99 981.1
20260905031204 68 16 0.0 0.0 0.00 0.21 0.21 99 981.2
20260905030659 68 16 0.0 0.0 0.00 0.21 0.21 99 981.0
20260905030154 68 16 0.0 0.0 0.00 0.21 0.21 99 980.8
20260905025649 68 16 0.0 0.0 0.00 0.21 0.21 99 980.8
20260905025145 68 16 0.0 0.0 0.00 0.21 0.21 99 980.8
20260905024641 67 16 0.0 0.0 0.00 0.21 0.21 99 980.7
20260905024136 67 16 0.0 0.0 0.00 0.21 0.21 99 980.8
20260905023631 67 16 0.0 0.0 0.00 0.21 0.21 99 980.8
20260905023131 68 16 0.0 0.0 0.00 0.21 0.21 99 980.9
20260905022630 68 16 0.0 0.0 0.00 0.21 0.21 99 980.8
20260905022126 68 16 0.0 0.0 0.00 0.21 0.21 99 980.7
20260905021625 68 16 0.0 0.0 0.00 0.21 0.21 99 980.9
20260905021121 68 16 0.0 0.0 0.00 0.21 0.21 99 980.9
20260905020621 68 16 0.0 0.0 0.00 0.21 0.21 99 980.7
20260905020116 68 16 0.0 0.0 0.00 0.21 0.21 99 980.6
20260905015615 68 16 0.0 0.0 0.00 0.21 0.21 99 980.6
20260905015109 68 16 0.0 0.0 0.00 0.21 0.21 99 980.5
20260905014603 68 16 0.0 0.0 0.00 0.21 0.21 99 980.5
20260905014059 68 16 0.0 0.0 0.00 0.21 0.21 99 980.5
20260905013555 68 16 0.0 0.0 0.00 0.21 0.21 99 980.3
20260905013051 68 16 0.0 0.0 0.00 0.21 0.21 99 980.4
20260905012550 69 16 0.0 0.0 0.00 0.21 0.21 99 980.4
20260905012047 69 16 0.0 0.0 0.00 0.21 0.21 99 980.4
20260905011543 68 16 0.0 0.0 0.00 0.21 0.21 99 980.4
20260905011038 68 16 0.0 0.0 0.00 0.21 0.21 99 980.4
20260905010533 69 16 0.0 0.0 0.00 0.21 0.21 99 980.3
20260905010029 69 16 0.0 0.0 0.00 0.21 0.21 99 980.1
20260905005525 69 16 0.0 0.0 0.00 0.21 0.21 99 980.2
20260905005020 69 16 0.0 0.0 0.00 0.21 0.21 99 980.3
20260905004520 69 16 0.0 0.0 0.00 0.21 0.21 99 980.1
20260905004015 69 16 0.0 0.0 0.00 0.21 0.21 99 980.2
20260905003511 69 16 0.0 0.0 0.00 0.21 0.21 99 980.1
20260905003007 69 16 0.0 0.0 0.00 0.21 0.21 99 979.9
20260905002502 69 16 0.0 0.0 0.00 0.21 0.21 99 980.1
20260905002001 70 16 0.0 0.0 0.00 0.21 0.21 99 980.0
20260905001456 69 16 0.0 0.0 0.00 0.21 0.21 99 979.9
20260905000951 70 16 0.0 0.0 0.00 0.21 0.21 99 979.8
20260905000447 70 16 0.0 0.0 0.00 0.21 0.21 99 979.8
20260904235942 70 16 0.0 0.0 0.00 0.21 0.21 99 979.8
20260904235438 70 16 0.0 0.0 0.00 0.21 0.21 99 979.9
20260904234937 70 16 0.0 0.0 0.00 0.21 0.21 99 979.7
20260904234437 70 16 0.0 0.0 0.00 0.21 0.21 99 979.7
20260904233933 70 16 0.0 0.0 0.00 0.21 0.21 99 979.6
20260904233428 70 16 0.0 0.0 0.00 0.21 0.21 99 979.7
20260904232925 70 16 0.0 0.0 0.00 0.21 0.21 99 979.7
20260904232421 71 16 0.0 0.0 0.00 0.21 0.21 99 980.1
20260904231918 71 16 0.0 0.0 0.00 0.21 0.21 99 980.2
20260904231412 71 16 0.0 0.0 0.00 0.21 0.21 99 980.2
20260904230907 71 16 0.0 1.0 0.00 0.21 0.21 99 980.3
20260904230406 71 16 1.0 1.0 0.00 0.21 0.21 99 980.3
20260904225901 71 16 0.0 0.0 0.00 0.21 0.21 99 980.3
20260904225359 71 16 0.0 0.0 0.00 0.21 0.21 99 980.3
20260904224859 72 16 0.0 0.0 0.00 0.21 0.21 99 980.2
20260904224355 72 16 0.0 0.0 0.00 0.21 0.21 99 980.0
20260904223855 72 16 0.0 0.0 0.00 0.21 0.21 99 980.2
20260904223354 73 16 1.0 1.0 0.00 0.21 0.21 99 980.5
20260904222850 73 16 1.0 1.0 0.00 0.21 0.21 98 980.8
20260904222345 73 16 1.0 1.0 0.00 0.21 0.21 98 980.8
20260904221844 73 16 1.0 2.0 0.00 0.21 0.21 97 980.8
20260904221339 74 16 0.0 1.0 0.00 0.21 0.21 95 981.2
20260904220834 76 16 0.0 0.0 0.00 0.21 0.21 92 980.9
20260904220333 76 17 0.0 1.0 0.00 0.21 0.21 89 980.9
20260904215829 75 15 1.0 2.0 0.00 0.21 0.21 91 980.7
20260904215324 75 70 1.0 4.0 0.00 0.21 0.21 93 980.9
20260904214820 74 3 0.0 1.0 0.00 0.21 0.21 93 981.2
20260904214315 73 3 0.0 2.0 0.00 0.21 0.21 96 981.4
20260904213813 73 3 0.0 3.0 0.00 0.21 0.21 98 981.7
20260904213309 72 3 0.0 0.0 0.00 0.21 0.21 98 981.7
20260904212806 72 3 0.0 0.0 0.00 0.21 0.21 98 981.7
20260904212306 71 3 0.0 1.0 0.00 0.21 0.21 98 981.5
20260904211800 71 3 0.0 1.0 0.00 0.21 0.21 99 981.3
20260904211255 71 3 0.0 3.0 0.00 0.21 0.21 98 981.8
20260904210751 71 59 0.0 2.0 0.00 0.21 0.21 99 981.6
20260904210250 72 59 1.0 2.0 0.00 0.21 0.21 99 981.6
20260904205746 0 0.0 0.0 0.00 0.00 0.00 981.7
20260904193557 71 1 2.0 15.0 1.21 0.21 0.21 93 983.0
20260904193054 71 1 2.0 15.0 1.21 0.21 0.21 93 983.0
20260904192554 76 343 6.0 10.0 0.31 0.06 0.06 86 983.0
20260904192049 83 16 10.0 15.0 0.00 0.01 0.01 73 982.0
20260904191546 85 317 1.0 2.0 0.00 0.01 0.01 86 980.7
20260904191042 85 215 1.0 2.0 0.00 0.01 0.01 83 980.4
20260904190537 87 97 1.0 1.0 0.00 0.01 0.01 77 980.6
20260904190034 88 128 2.0 3.0 0.00 0.01 0.01 75 980.7
20260904185530 90 209 0.0 1.0 0.00 0.01 0.01 71 980.5
20260904185025 91 209 0.0 3.0 0.00 0.01 0.01 68 980.3
20260904184524 91 158 4.0 4.0 0.00 0.01 0.01 65 980.3
20260904184019 90 91 1.0 3.0 0.00 0.01 0.01 64 980.5
20260904183514 91 98 2.0 7.0 0.00 0.01 0.01 65 980.1
20260904183010 91 234 3.0 4.0 0.00 0.01 0.01 65 979.9
20260904182505 91 38 1.0 1.0 0.00 0.01 0.01 70 979.9
20260904182005 91 95 2.0 3.0 0.00 0.01 0.01 68 980.1
20260904181500 92 113 2.0 3.0 0.00 0.01 0.01 69 980.4
20260904180955 91 103 2.0 2.0 0.00 0.01 0.01 70 980.4
20260904180450 90 112 2.0 2.0 0.00 0.01 0.01 69 980.5
20260904175950 91 85 2.0 3.0 0.00 0.01 0.01 71 980.6
20260904175449 90 65 0.0 3.0 0.00 0.01 0.01 70 980.6
20260904174943 91 37 1.0 3.0 0.00 0.01 0.01 67 981.0
20260904174438 89 50 0.0 8.0 0.00 0.01 0.01 71 981.1
20260904173936 89 48 2.0 3.0 0.00 0.01 0.01 68 981.3
20260904173435 89 69 1.0 6.0 0.00 0.01 0.01 70 981.6
20260904172930 89 143 0.0 3.0 0.00 0.01 0.01 72 981.3
20260904172426 91 260 1.0 2.0 0.00 0.01 0.01 70 981.4
20260904171920 91 66 3.0 6.0 0.00 0.01 0.01 69 981.6
20260904171415 90 108 5.0 6.0 0.00 0.01 0.01 79 981.5
20260904170912 90 226 0.0 3.0 0.00 0.01 0.01 72 981.6
20260904170407 90 72 2.0 3.0 0.00 0.01 0.01 77 981.5
20260904165902 90 18 2.0 2.0 0.00 0.01 0.01 71 981.7
20260904165356 89 336 1.0 3.0 0.00 0.01 0.01 72 981.9
20260904164856 89 191 1.0 1.0 0.00 0.01 0.01 74 981.8
20260904164355 89 55 2.0 2.0 0.00 0.01 0.01 72 981.6
20260904163852 89 98 3.0 3.0 0.00 0.01 0.01 75 981.6
20260904163351 90 189 2.0 4.0 0.00 0.01 0.01 74 982.0
20260904162851 89 111 2.0 3.0 0.00 0.01 0.01 74 982.0
20260904162346 89 179 0.0 3.0 0.00 0.01 0.01 74 982.0
20260904161842 88 70 1.0 2.0 0.00 0.01 0.01 75 982.0
20260904161341 88 121 0.0 2.0 0.00 0.01 0.01 73 982.1
20260904160837 89 41 2.0 3.0 0.00 0.01 0.01 74 981.9
20260904160332 89 127 1.0 2.0 0.00 0.01 0.01 75 982.0
20260904155827 89 112 1.0 2.0 0.00 0.01 0.01 73 982.2
20260904155322 87 109 2.0 3.0 0.00 0.01 0.01 77 982.3
20260904154820 87 166 2.0 2.0 0.00 0.01 0.01 74 982.1
20260904154315 88 351 2.0 3.0 0.00 0.01 0.01 75 982.1
20260904153811 87 66 1.0 3.0 0.00 0.01 0.01 78 982.2
20260904153306 86 108 3.0 3.0 0.00 0.01 0.01 78 982.3
20260904152803 86 92 3.0 4.0 0.00 0.01 0.01 78 982.1
20260904152257 86 107 2.0 3.0 0.00 0.01 0.01 77 982.2
20260904151752 86 126 1.0 2.0 0.00 0.01 0.01 79 982.1
20260904151251 86 104 2.0 3.0 0.00 0.01 0.01 77 982.2
20260904150747 86 107 2.0 3.0 0.00 0.01 0.01 81 982.1
20260904150242 85 108 2.0 3.0 0.00 0.01 0.01 81 982.2
20260904145740 85 109 2.0 4.0 0.00 0.01 0.01 81 982.3
20260904145236 85 108 1.0 2.0 0.00 0.01 0.01 82 982.2
20260904144731 84 98 2.0 3.0 0.00 0.01 0.01 82 982.2
20260904144227 84 113 1.0 6.0 0.00 0.01 0.01 82 982.2
20260904143722 83 101 1.0 3.0 0.00 0.01 0.01 86 982.2
20260904143219 83 105 4.0 4.0 0.00 0.01 0.01 85 982.3
20260904142715 82 105 1.0 3.0 0.00 0.01 0.01 85 982.1
20260904142211 82 125 1.0 3.0 0.00 0.01 0.01 85 982.3
20260904141705 82 161 0.0 2.0 0.00 0.01 0.01 89 982.4
20260904141201 82 160 3.0 3.0 0.00 0.01 0.01 85 982.7
20260904140657 81 240 3.0 3.0 0.00 0.01 0.01 86 982.4
20260904140151 81 52 1.0 2.0 0.00 0.01 0.01 89 982.4
20260904135650 80 145 1.0 1.0 0.00 0.01 0.01 92 982.4
20260904135146 80 145 1.0 2.0 0.00 0.01 0.01 95 982.3
20260904134642 79 145 1.0 1.0 0.00 0.01 0.01 94 982.5
20260904134140 79 145 1.0 2.0 0.00 0.01 0.01 95 982.7
20260904133635 79 145 1.0 2.0 0.00 0.01 0.01 94 982.5
20260904133131 80 162 0.0 1.0 0.00 0.01 0.01 94 982.4
20260904132626 78 162 1.0 2.0 0.00 0.01 0.01 95 982.4
20260904132126 78 162 0.0 2.0 0.00 0.01 0.01 93 982.6
20260904131625 77 162 1.0 2.0 0.00 0.01 0.01 94 982.6
20260904131121 77 162 1.0 1.0 0.00 0.01 0.01 96 982.5
20260904130620 76 162 1.0 2.0 0.00 0.01 0.01 96 982.6
20260904130115 76 184 0.0 1.0 0.00 0.01 0.01 96 982.5
20260904125612 75 184 0.0 1.0 0.00 0.01 0.01 97 982.5
20260904125107 74 184 1.0 2.0 0.00 0.01 0.01 99 982.7
20260904124602 74 218 0.0 0.0 0.00 0.01 0.01 99 982.8
20260904124057 73 218 0.0 0.0 0.00 0.01 0.01 99 982.9
20260904123552 73 218 0.0 0.0 0.00 0.01 0.01 99 982.9
20260904123048 73 218 0.0 0.0 0.00 0.01 0.01 99 982.8
20260904122547 72 218 0.0 0.0 0.00 0.01 0.01 99 982.8
20260904122042 72 218 0.0 0.0 0.00 0.01 0.01 99 982.8
20260904121538 72 218 0.0 0.0 0.00 0.01 0.01 99 982.8
20260904121033 72 218 0.0 0.0 0.00 0.01 0.01 99 982.7
20260904120530 71 218 0.0 0.0 0.00 0.01 0.01 99 982.8
20260904120025 70 218 0.0 0.0 0.00 0.01 0.01 99 982.9
20260904115520 70 218 0.0 0.0 0.00 0.01 0.01 99 982.9
20260904115015 70 218 0.0 0.0 0.00 0.01 0.01 99 982.8
20260904114510 70 218 0.0 0.0 0.05 0.01 0.01 99 982.7
20260904114005 69 218 0.0 0.0 0.05 0.01 0.01 99 982.5
20260904113504 70 218 0.0 0.0 0.00 0.00 0.00 99 982.7
20260904112957 69 218 0.0 0.0 0.00 0.00 0.00 99 982.6
20260904112453 69 218 1.0 2.0 0.00 0.00 0.00 99 982.8
20260904111943 68 218 0.0 1.0 0.00 0.00 0.00 99 982.7
20260904111439 68 218 0.0 0.0 0.00 0.00 0.00 99 982.2
20260904110934 68 218 0.0 0.0 0.00 0.00 0.00 99 982.2
20260904110433 68 218 0.0 0.0 0.00 0.00 0.00 99 982.2
20260904105923 69 218 0.0 0.0 0.00 0.00 0.00 99 982.3
20260904105418 68 218 1.0 2.0 0.00 0.00 0.00 99 982.2
20260904104913 67 218 0.0 1.0 0.00 0.00 0.00 99 982.3
20260904104408 67 218 0.0 0.0 0.00 0.00 0.00 99 982.0
20260904103905 67 218 0.0 0.0 0.00 0.00 0.00 99 982.0
20260904103405 68 218 0.0 0.0 0.00 0.00 0.00 99 981.9
20260904102901 68 218 0.0 0.0 0.00 0.00 0.00 99 981.9
20260904102355 68 218 0.0 0.0 0.00 0.00 0.00 99 981.9
20260904101851 68 218 0.0 0.0 0.00 0.00 0.00 99 981.8
20260904101348 68 218 0.0 0.0 0.00 0.00 0.00 99 981.8
20260904100843 68 218 0.0 0.0 0.00 0.00 0.00 99 981.8
20260904100339 68 218 0.0 0.0 0.00 0.00 0.00 99 981.8
20260904095833 68 218 0.0 0.0 0.00 0.00 0.00 99 981.7
20260904095328 68 218 0.0 0.0 0.00 0.00 0.00 99 981.7
20260904094824 68 218 0.0 0.0 0.00 0.00 0.00 99 981.6
20260904094318 68 218 0.0 0.0 0.00 0.00 0.00 99 981.6
20260904093815 68 218 0.0 0.0 0.00 0.00 0.00 99 981.8
20260904093314 68 218 0.0 0.0 0.00 0.00 0.00 99 981.8
20260904092809 68 218 0.0 0.0 0.00 0.00 0.00 99 981.6
20260904092306 68 218 0.0 0.0 0.00 0.00 0.00 99 981.7
20260904091802 69 218 0.0 0.0 0.00 0.00 0.00 99 981.8
20260904091256 69 218 0.0 0.0 0.00 0.00 0.00 99 981.8
20260904090752 68 218 0.0 0.0 0.00 0.00 0.00 99 981.7
20260904090248 68 218 0.0 0.0 0.00 0.00 0.00 99 981.6
20260904085742 69 218 0.0 0.0 0.00 0.00 0.00 99 981.6
20260904085237 69 218 0.0 0.0 0.00 0.00 0.00 99 981.6
20260904084732 69 218 0.0 0.0 0.00 0.00 0.00 99 981.7
20260904084228 69 218 0.0 0.0 0.00 0.00 0.00 99 981.5
20260904083724 69 218 0.0 0.0 0.00 0.00 0.00 99 981.6
20260904083220 69 218 0.0 0.0 0.00 0.00 0.00 99 981.5
20260904082714 69 218 0.0 0.0 0.00 0.00 0.00 99 981.6
20260904082210 69 218 0.0 0.0 0.00 0.00 0.00 99 981.6
20260904081706 69 218 0.0 0.0 0.00 0.00 0.00 99 981.3
20260904081201 69 218 0.0 0.0 0.00 0.00 0.00 99 981.4
20260904080656 69 218 0.0 0.0 0.00 0.00 0.00 99 981.4
20260904080152 69 218 0.0 0.0 0.00 0.00 0.00 99 981.2
20260904075649 69 218 0.0 0.0 0.00 0.00 0.00 99 981.3
20260904075149 69 218 0.0 0.0 0.00 0.00 0.00 99 981.3
20260904074642 69 218 0.0 0.0 0.00 0.00 0.00 99 981.1
20260904074136 69 218 0.0 0.0 0.00 0.00 0.00 99 981.3
20260904073632 69 218 0.0 0.0 0.00 0.00 0.00 99 981.3
20260904073129 69 218 0.0 0.0 0.00 0.00 0.00 99 981.3
20260904072624 70 218 0.0 0.0 0.00 0.00 0.00 99 981.3
20260904072119 69 218 0.0 0.0 0.00 0.00 0.00 99 981.3
20260904071614 70 218 0.0 0.0 0.00 0.00 0.00 99 981.4
20260904071109 70 218 0.0 0.0 0.00 0.00 0.00 99 981.3
20260904070603 70 218 0.0 0.0 0.00 0.00 0.00 99 981.2
20260904070057 69 218 0.0 0.0 0.00 0.00 0.00 99 981.3
20260904065552 69 218 1.0 2.0 0.00 0.00 0.00 99 981.4
20260904065048 69 218 0.0 0.0 0.00 0.00 0.00 99 981.1
20260904064544 70 218 0.0 0.0 0.00 0.00 0.00 99 981.2
20260904064038 70 218 0.0 0.0 0.00 0.00 0.00 99 981.3
20260904063535 69 218 0.0 0.0 0.00 0.00 0.00 99 981.2
20260904063030 70 218 0.0 0.0 0.00 0.00 0.00 99 981.1
20260904062526 70 218 0.0 0.0 0.00 0.00 0.00 99 981.3
20260904062021 70 218 0.0 0.0 0.00 0.00 0.00 99 981.2
20260904061517 70 218 0.0 0.0 0.00 0.00 0.00 99 981.0
20260904061013 70 218 0.0 0.0 0.00 0.00 0.00 99 981.2
20260904060509 70 218 0.0 0.0 0.00 0.00 0.00 99 981.4
20260904060005 70 218 0.0 0.0 0.00 0.00 0.00 99 981.5
20260904055500 71 218 0.0 0.0 0.00 0.00 0.00 99 981.7
20260904054955 71 218 0.0 0.0 0.00 0.00 0.00 99 981.9
20260904054451 71 218 0.0 0.0 0.00 0.00 0.00 99 981.9
20260904053947 71 218 0.0 0.0 0.00 0.00 0.00 99 981.9
20260904053446 71 218 0.0 0.0 0.00 0.00 0.00 99 982.0
20260904052942 71 218 0.0 0.0 0.00 0.00 0.00 99 981.9
20260904052438 71 218 0.0 0.0 0.00 0.00 0.00 99 982.1
20260904051934 72 218 0.0 0.0 0.00 0.00 0.00 99 982.2
20260904051430 72 218 0.0 1.0 0.00 0.00 0.00 99 982.4
20260904050929 72 218 1.0 2.0 0.00 0.00 0.00 99 982.5
20260904050426 73 217 0.0 1.0 0.00 0.00 0.00 99 982.5
20260904045926 73 107 1.0 1.0 0.00 0.00 0.00 99 982.5
20260904045421 73 107 0.0 1.0 0.00 0.00 0.00 99 982.6
20260904044920 73 141 1.0 6.0 0.00 0.00 0.00 98 982.6
20260904044417 73 21 1.0 3.0 0.00 0.00 0.00 99 982.6
20260904043913 74 311 1.0 3.0 0.00 0.00 0.00 99 982.6
20260904043409 74 111 1.0 3.0 0.00 0.00 0.00 99 982.6
20260904042905 74 279 0.0 0.0 0.00 0.00 0.00 99 982.7
20260904042401 74 279 0.0 0.0 0.00 0.00 0.00 99 982.6
20260904041901 74 279 0.0 0.0 0.00 0.00 0.00 99 982.5
20260904041357 74 279 1.0 2.0 0.00 0.00 0.00 99 982.2